STARLINK-11193, 60195

Orbit data source: Space-Track

STARLINK-11193, 60195 is a payload satellite owned by SpaceX/Seattle (US) in LEO that was launched on Wed, 03 Jul 2024 UTC via an FALCON 9 launch vehicle from the Air Force Eastern Test Range (AFETR). Payload-class satellites include a variety of spacecraft equipped with specific instruments for various scientific and technological missions. These include communications satellites like Starlink; space stations such as the ISS; scientific satellites like the Hubble; Earth observation satellites from companies like Planet Labs, Umbra, and HawkEye 360; GPS; miniature CubeSats for education and research; and military/defense satellites.

Loading next visibility...
Identifier
60195, 2024-124N
Orbit
LEO
Last TLE update
11 hours ago
Origin
Manufacturer
SpaceX/Seattle
Mission
Operational Commercial Communications
Bus & Motor
STARLINK V2M, Unknown motor
Mass
730 kg wet, ~700 kg dry
Launch date (UTC)
2024-07-03 (10 months ago)
Launch vehicle
FALCON 9
Launch site
Air Force Eastern Test Range (AFETR)
Object type
Payload
Rocket body
Debris
Shape & HBR
Box + 2 Pan, 29 m
Radar Cross Section
36.964 m², Large (>1 m²)

Expand to show TLE details & history

TLE from 11 hours ago
0 STARLINK-11193
1 60195U 24124N   25128.83596583  .00003368  00000-0  32655-4 0  9994
2 60195  53.1581 224.0498 0001275  60.4757 299.6388 15.69702449 48654
Epoch: 2025-05-08T20:03Z
Definitive object data (Epoch: 2025-05-08T20:03:47.447Z)
Latitude
-0.00002°
Longitude
56.20133°
Altitude
360.238 km
Speed
7.695 km/s
True Right ascension
14h 56m 11s
True Declination
0° 00' 00"
Sunlit
Object was in full shadow at TLE epoch
Visualization TLE readout
Latitude
27.45054°
Longitude
76.74239°
Altitude
360.286 km
Speed
7.697 km/s
Apparent Right ascension
19h 36m 19s
Apparent Declination
-25° 22' 45"
Sunlit
Object is in full shadow
Visualization observer readout
Local Sidereal Time
15:03:23
Azimuth
122.944° SE
Elevation
-1.034°
Doppler factor
1
Orbital elements
Apogee altitude
360.868 km
Perigee altitude
359.15 km
Semi-major axis
6,738.146 km
Eccentricity
0.0001275
Inclination
53.1581°
RAAN
224.0498°
Arg. of periapsis
60.4757°
True anomaly
299.6261°
Mean anomaly
299.6388°
Eccentric anomaly
299.63245°
Mean motion
3.92403 °/min
BSTAR
0.000032655
Orbital period
91.74 mins
Loading maneuver chart data...
Loading SW <> Apogee altitude chart data...
Loading historical data...
Loading historical data...
Loading historical data...
Loading historical data...
Loading historical data...
Loading historical data...
Loading historical data...

STARLINK-11193 Visibility forecast

Observer location: undefined°, undefined°

Span
Click to sort rows by Start time (UTC) header in descending order
Start Az.
Max El. time (UTC)
Max El. Az.
Max El.
End time (UTC)
End Az.
4 mins2025-05-09 08:27:28.783Z184.562° SSW2025-05-09 08:29:28.783Z125.745° SE24.43°2025-05-09 08:31:28.783Z76.191° E
|